Current Version              Previous Version:    01  02  03  04  05  06  07  08  09  10  11  12  13  14  15  16  17  18  19  20  21  22  23  24  25  26  27  28  29  30  
   31  32  33  34  35  36  37  38  39  40  41  42  43  44  45  46  47  48  49  50  51  52  53  54  55  56  57  58  59  60  

[Printable]
340
ASUS44 KFWD 251310
RWRTX
NORTH TEXAS HOURLY WEATHER ROUNDUP
NATIONAL WEATHER SERVICE FORT WORTH TX
800 AM CDT SAT OCT 25 2014

NOTE: "FAIR" INDICATES FEW OR NO CLOUDS BELOW 12,000 FEET WITH NO
SIGNIFICANT WEATHER AND/OR OBSTRUCTIONS TO VISIBILITY.

TXZ118-119-251400-
DALLAS/FORT WORTH METROPLEX

CITY           SKY/WX    TMP DP  RH WIND       PRES   REMARKS
DFW AIRPORT    CLEAR     64  58  80 S7        30.12R
DALLAS LOVE    CLEAR     65  57  75 SE9       30.12S
FTW MEACHAM    CLEAR     64  58  80 S6        30.11R
DAL-EXECUTIVE  CLEAR     64  57  78 S6        30.12R
FTW-ALLIANCE   CLEAR     61  58  90 S3        30.11R
FTW-NAS-JRB    CLEAR     68  57  68 SE5       30.16R
FTW-SPINKS     CLEAR     63  57  82 S5        30.13R
ARLINGTON      CLEAR     64  57  78 S6        30.12R
GRAND PRAIRIE  CLEAR     64  59  82 MISG        N/A
ADDISON        CLEAR     66  57  72 S8        30.13
MESQUITE       CLEAR     59  57  94 SE6       30.14R
LANCASTER      CLEAR     58  55  87 CALM      30.15R
$$

TXZ091>094-102>105-117-120-121-131>134-251400-
NORTH CENTRAL TEXAS

CITY           SKY/WX    TMP DP  RH WIND       PRES   REMARKS
SHRMAN/DENISON CLEAR     65  60  85 S10       30.11S
GAINESVILLE    CLEAR     60  58  90 S5        30.13R
BOWIE          CLEAR     58  58  98 CALM      30.11R FOG
BRIDGEPORT     CLEAR     56  56 100 CALM      30.13R
DECATUR        CLEAR     65  58  77 S6        30.12R
DENTON         CLEAR     60  57  89 S5        30.11R
MCKINNEY       CLEAR     60  57  89 S6        30.12S
GREENVILLE     CLEAR     57  55  94 CALM      30.14S FOG
ROCKWALL       CLEAR     62  58  87 S9        30.12S
TERRELL        CLEAR     61  58  90 S5        30.15R
WAXAHACHIE     CLEAR     59  58  97 SE6       30.15R
CLEBURNE       CLEAR     61  61 100 S6        30.15R
GRANBURY       CLEAR     63  58  86 CALM      30.14R
$$

TXZ083>090-098>101-113>116-127>130-139>142-154-155-251400-
WESTERN NORTH TEXAS

CITY           SKY/WX    TMP DP  RH WIND       PRES   REMARKS
WICHITA FALLS  CLEAR     56  55  97 S5        30.09R
WF-KICKAPOO    CLEAR     60  56  89 S5        30.11R
VERNON         CLEAR     59  54  82 SW7       30.10R
ABILENE        CLEAR     65  57  75 SW5       30.15R
ABILENE-DYESS  CLEAR     67  58  72 S7        30.13R
BRECKENRIDGE   CLEAR     63  56  79 MISG      30.12S HAZE
GRAHAM         CLEAR     63  58  85 CALM      30.11R
MINERAL WELLS  CLEAR     61  58  90 SE6       30.11R FOG
STEPHENVILLE   CLEAR     61  57  85 S3        30.16R
COMANCHE       CLEAR     68  58  72 W8        30.14R
BROWNWOOD      CLEAR     55  55 100 CALM      30.16R
COLEMAN        CLEAR     60  57  89 SW5       30.16R
BRADY          CLEAR     59  55  88 SW5       30.16S
$$

TXZ143>147-156>162-174-175-251400-
CENTRAL TEXAS

CITY           SKY/WX    TMP DP  RH WIND       PRES   REMARKS
WACO           CLEAR     61  58  90 SE7       30.14R
WACO-TSTC      CLEAR     59  57  94 S5        30.15R
WACO-MCGREGOR  CLEAR     61  52  72 S6        30.15S
HILLSBORO      CLEAR     63  56  78 S5        30.14R
CORSICANA      CLEAR     61  56  83 S6        30.16R
MEXIA          CLEAR     58  56  92 CALM      30.15R
HEARNE         CLEAR     58  56  92 CALM      30.17R
CAMERON        CLEAR     59  57  92 S3        30.16R
TEMPLE         CLEAR     59  52  77 S5        30.14R
KILLEEN        CLEAR     60  57  89 S7        30.15R
KILLEEN-SKYLRK CLEAR     63  52  67 S3        30.12R
FORT HOOD      CLEAR     64  58  80 SE3       30.15R
GATESVILLE     CLEAR     61  57  88 SE3       30.16S
HAMILTON       CLEAR     61  58  91 SW6       30.15R
LAMPASAS       CLEAR     62  58  88 CALM      30.14S
$$

TXZ095>097-106>112-122>126-135>138-148>153-164>167-251400-
EAST TEXAS

CITY           SKY/WX    TMP DP  RH WIND       PRES   REMARKS
PARIS          CLEAR     59  52  77 S5        30.14S
SULPHUR SPRNGS CLEAR     63  58  84 SW7       30.16R
MOUNT PLEASANT CLEAR     55  55  99 CALM      30.16R
MINEOLA        CLEAR     63  59  88 S6        30.16R
TYLER          CLEAR     60  56  86 S6        30.16R
LONGVIEW       CLEAR     58  55  90 CALM      30.15R
MARSHALL       CLEAR     56  54  92 CALM      30.17S
ATHENS         CLEAR     54  54 100 CALM      30.15R
JACKSONVILLE   CLEAR     62  56  80 SW5       30.18R
HENDERSON      CLEAR     54  54 100 CALM      30.17R FOG
NACOGDOCHES    CLEAR     50  46  87 CALM      30.17R
LUFKIN         CLEAR     55  51  86 CALM      30.16R
$$

SUPPLEMENTAL OBSERVATIONS (CENTRAL)

CITY           SKY/WX    TMP DP  RH WIND       PRES   REMARKS
CADDO GRASSLND   N/A     64  57  77 S9          N/A
PAT MAYSE LAKE   N/A     61  57  88 E5          N/A
GREENVILLE       N/A     64  59  82 S7          N/A
CEDAR HILL       N/A     68  55  64 S7          N/A
MCGREGOR         N/A     61  57  88 SW3         N/A
$$

SUPPLEMENTAL OBSERVATIONS (WEST)

CITY           SKY/WX    TMP DP  RH WIND       PRES   REMARKS
MILLERS CREEK    N/A     59  50  72 SW6         N/A
LBJ GRASSLAND    N/A     63  57  82 SE6         N/A
GRANBURY         N/A     63  59  88 SE2         N/A
HAMBY            N/A     63  55  77 S6          N/A
IVIE RESERVOIR   N/A     61  57  88 CALM        N/A
COLORADO BEND    N/A     61  55  82 CALM        N/A
$$

SUPPLEMENTAL OBSERVATIONS (EAST)

CITY           SKY/WX    TMP DP  RH WIND       PRES   REMARKS
CLARKSVILLE      N/A     57  55  94 S2          N/A
TEXARKANA        N/A     52  50  93 CALM        N/A
LINDEN           N/A     61  57  88 W1          N/A
GILMER           N/A     59  54  82 S1          N/A
HENDERSON        N/A     55  52  88 CALM        N/A
LUFKIN           N/A     52  48  87 MISG        N/A
N SABINE NF      N/A     46  43  87 MISG        N/A
S SABINE NF      N/A     52  50  93 CALM        N/A
$$

SUPPLEMENTAL OBSERVATIONS ARE A COLLECTION OF AUTOMATED INSTRUMENTS
THAT ARE MAINTAINED BY A VARIETY OF FEDERAL AND STATE AGENCIES.
CERTAIN ELEMENTS...SUCH AS HUMIDITY VALUES AND SUSTAINED WIND
SPEEDS...MAY BE APPROXIMATED.